< < Back
Terminal Aerodrome Forecast


Current Version              Previous Versions:   1  2  3  4  5  6  7  8  9  

Terminal Aerodrome Forecast

886
FTUS44 KMRX 041120
TAFTYS
TAF
KTYS 041120Z 0412/0512 03003KT P6SM FEW250
     FM041500 05005KT P6SM FEW045
     FM050100 03002KT P6SM SCT060
     FM050800 03002KT P6SM SKC=

Latest METAR

793
SAUS80 KWBC 051000 RRA
MTRTYS
METAR KTYS 050953Z 00000KT 10SM FEW060 20/19 A3008 RMK AO2 SLP173
T02000194 $


USA.gov is the U.S. government's official web portal to all federal, state and local government web resources and services.